Location: Bergheim
(50.9593°N, 6.6400°E)
Time: 03:07:52
(UTC+01:00)

ISS - Pass Details

Date: 03 October 2020
Orbit: 417 x 420 km, 51.6° (Epoch: 25 October)

Event Time Altitude Azimuth Distance (km) Brightness Sun altitude
Rises 21:06:33 0° 283° (WNW) 2,370 1.7 -19.6°
Reaches altitude 10° 21:08:58 10° 267° (W) 1,503 0.1 -19.9°
Maximum altitude 21:11:34 21° 217° (SW) 1,010 -1.7 -20.3°
Enters shadow 21:12:12 20° 200° (SSW) 1,044 -1.8 -20.4°
